Location: Bennemühlen
(52.5740°N, 9.7135°E)
Time: 23:51:05
(UTC+00:00)

SL-24 R/B - Pass Details

Date: 19 May 2025
Orbit: 594 x 1188 km, 97.8° (Epoch: 15 June)

Event Time Altitude Azimuth Distance (km) Brightness Sun altitude
Exits shadow 20:30:51 - 165° (SSE) 1,998 6.6 -8.9°
Reaches altitude 10° 20:30:58 10° 165° (SSE) 1,949 6.5 -8.9°
Maximum altitude 20:35:07 89° 247° (WSW) 603 4.5 -9.3°
Drops below altitude 10° 20:39:19 10° 346° (NNW) 1,970 8.4 -9.7°
Sets 20:41:32 0° 346° (NNW) 2,914 9.4 -9.9°
